Theta_e
332 322 321 321 326 325 317 311 296 299 301 294 294 297 296 303 306 304 304 310 306 312 316 321 321 321 318 316 320 322 323 317 320 305 303 323 340 339 339 340 343 344 345 349 349 349 350 353 353 352 352 353 353 354 354 353 353 353 353 353 353 353 354 353 353 353 353 353 353 353 353 353 352 352 351 350 350 349 347 347 348 349 349 348 348 348 348 348 348 347 347 348 348 348 348 346 345
324 321 319 320 320 317 307 307 298 295 294 292 295 298 300 304 303 300 306 309 312 313 320 323 325 326 326 325 324 324 322 325 326 325 330 338 339 338 340 340 342 343 347 349 349 348 348 351 354 353 352 353 353 354 353 353 352 353 353 353 353 353 353 353 354 353 353 353 353 352 352 352 351 351 350 349 348 347 347 348 349 349 348 348 348 348 348 348 347 347 346 346 346 347 346 345 344
323 318 315 318 316 315 311 304 296 292 292 288 294 297 303 301 301 308 310 311 314 317 320 321 322 322 324 324 320 319 313 327 326 329 328 337 332 333 339 340 340 344 347 348 348 348 348 350 354 354 353 353 353 353 353 352 352 353 352 353 353 353 353 354 353 353 353 352 352 352 351 351 350 350 348 348 348 348 349 349 349 348 348 348 348 348 348 348 348 347 346 346 346 345 345 344 343
322 319 315 313 308 307 301 298 295 294 291 291 292 300 301 302 304 311 314 314 316 316 316 318 320 326 323 318 320 325 320 321 325 327 326 330 334 337 340 339 340 341 344 347 347 348 348 352 353 353 353 353 353 353 353 353 353 353 352 352 353 353 353 353 353 352 352 352 351 352 351 350 350 348 348 348 349 349 349 349 348 347 347 347 347 347 347 346 346 345 345 344 344 343 343 343 342
318 321 315 312 307 301 301 298 296 293 291 292 293 301 302 304 306 311 314 315 315 315 319 320 320 327 328 323 326 318 319 324 326 330 329 334 341 340 339 340 340 341 341 345 348 347 348 352 353 354 353 353 353 353 353 353 353 352 352 352 352 352 353 352 352 351 351 351 351 350 350 349 348 348 348 348 348 350 349 348 347 349 348 348 347 347 347 346 345 345 344 344 344 344 343 343 342
316 315 317 311 304 307 302 295 292 293 297 299 298 300 304 308 305 309 315 315 317 320 322 322 319 322 321 323 325 321 327 318 328 331 333 332 339 341 341 342 340 339 340 343 347 347 348 352 352 353 353 353 352 352 351 351 351 352 352 352 352 352 352 352 351 351 350 350 350 349 349 348 348 348 348 347 350 349 349 349 348 348 348 347 347 347 347 345 345 344 343 344 344 344 343 342 342
313 308 309 307 304 305 295 293 293 293 298 302 301 302 308 310 311 312 313 314 321 323 327 324 326 324 319 323 325 328 331 332 330 332 338 337 337 339 340 341 341 339 339 339 346 348 349 352 352 353 352 352 351 351 351 351 351 351 351 351 352 352 351 350 350 350 350 350 349 349 348 348 348 347 347 349 349 349 349 349 348 347 347 347 347 346 346 345 344 343 343 343 344 344 343 342 342
315 306 305 297 297 298 294 293 293 295 297 306 305 307 311 312 312 311 310 310 312 315 322 326 325 320 317 326 317 327 332 334 334 337 339 338 338 339 341 341 337 338 337 339 346 349 352 352 353 353 352 352 351 351 350 351 351 351 351 351 351 351 350 350 350 350 350 349 349 348 348 348 347 347 350 350 350 350 349 349 348 348 347 347 346 346 346 345 344 343 343 343 343 343 343 343 342
308 307 306 298 295 296 292 292 295 299 301 306 307 313 320 313 314 313 311 312 314 317 318 321 324 317 319 319 318 325 327 334 338 340 340 340 339 341 340 337 337 337 339 342 346 348 350 353 353 353 353 352 351 351 351 351 351 351 351 351 351 351 350 349 350 350 350 349 349 349 348 348 348 349 350 350 350 349 349 348 347 348 348 346 346 346 346 346 344 344 344 344 344 343 344 342 343
304 304 298 296 295 293 291 292 294 301 304 307 309 311 312 313 314 314 312 312 313 321 321 323 323 317 320 316 318 322 325 334 336 336 338 338 339 339 336 336 336 336 338 344 348 349 348 354 352 352 353 352 351 350 351 351 350 351 351 350 350 350 348 350 350 350 350 349 349 349 349 348 350 349 348 349 349 348 348 348 348 347 347 346 346 346 347 346 345 344 344 344 343 343 343 343 343
298 301 301 296 292 289 290 290 294 299 304 308 309 313 313 313 314 313 313 313 316 315 321 323 318 317 318 317 318 326 330 332 333 332 335 336 339 338 337 337 338 339 340 344 347 347 346 348 350 352 351 351 351 351 351 350 350 350 350 350 350 349 349 350 350 350 349 349 349 348 348 349 348 348 348 348 348 348 348 348 347 347 346 347 347 346 346 346 345 345 344 344 344 344 343 344 344
296 297 297 291 291 290 289 292 297 300 303 305 306 311 312 313 314 312 312 311 313 315 316 318 317 321 316 316 316 323 329 330 332 334 336 337 338 337 337 337 338 340 341 342 346 346 347 347 349 350 352 351 350 351 350 349 350 348 348 347 349 349 349 350 350 350 349 349 349 348 347 347 348 349 348 347 348 347 347 347 347 347 347 346 346 346 346 346 345 345 344 344 344 343 344 344 344
297 295 293 291 288 290 292 292 292 304 299 301 304 310 312 315 313 313 313 313 314 314 316 322 324 324 314 316 321 326 325 328 333 336 337 337 338 336 336 336 338 339 340 341 341 341 343 346 349 349 350 352 350 349 349 349 349 349 348 348 349 350 350 350 350 350 349 349 348 347 346 345 346 346 347 347 347 347 346 346 346 346 345 345 345 345 345 346 346 345 344 344 344 344 344 345 344
300 298 295 291 293 292 292 294 296 295 295 303 307 311 312 312 314 314 314 311 314 315 320 325 324 323 317 320 319 320 323 330 334 336 337 338 337 335 334 335 337 338 338 339 339 340 341 342 345 349 348 347 346 347 349 349 348 348 349 349 350 350 350 350 350 350 349 349 348 347 346 345 345 345 347 347 347 346 346 345 346 345 344 344 345 346 344 344 344 345 345 345 345 344 344 345 345
301 300 297 293 294 293 295 292 293 295 294 300 305 308 312 315 315 314 315 313 315 322 326 329 325 319 312 317 316 320 324 330 334 335 336 337 336 334 334 335 336 338 339 339 339 339 337 338 340 347 347 346 345 343 343 347 348 346 348 349 350 350 350 350 350 350 349 349 349 348 348 346 345 346 348 347 347 346 345 345 345 344 344 344 345 345 345 344 344 343 345 345 345 345 345 345 345
302 299 296 295 291 293 292 293 295 294 295 302 305 308 309 311 314 313 315 318 318 328 327 320 330 319 320 320 321 325 328 331 333 335 336 336 335 334 333 333 334 335 337 337 337 337 336 336 338 346 345 345 345 343 343 345 345 348 348 349 350 350 349 349 349 349 349 349 349 349 348 348 346 344 346 345 346 346 345 344 345 344 343 344 345 345 345 345 344 345 344 345 346 345 344 345 345
301 300 293 291 290 292 293 295 295 292 297 301 305 306 308 310 314 316 322 325 321 323 326 328 326 331 324 326 328 329 330 334 335 334 333 333 333 332 331 332 332 332 334 334 334 336 335 336 337 343 345 345 345 345 345 344 345 347 347 347 349 349 349 349 349 349 349 348 347 348 347 341 339 340 342 341 345 344 343 344 344 343 343 344 344 345 345 346 346 346 345 344 346 345 345 345 345
301 295 291 290 290 293 294 297 298 299 300 303 306 306 308 307 312 315 320 324 324 324 323 325 328 327 328 329 330 330 331 332 333 330 329 329 328 327 327 330 330 329 331 331 333 336 335 336 338 342 344 343 344 344 345 344 344 345 343 345 345 346 348 347 347 346 348 343 347 344 340 344 337 336 339 345 341 342 341 342 344 344 343 343 344 344 345 346 346 346 346 345 345 345 346 335 337
298 294 291 290 291 296 299 300 300 302 301 305 306 307 309 308 310 312 312 317 320 319 321 323 323 325 328 329 328 328 330 330 331 329 327 326 325 326 326 327 326 329 329 329 330 334 336 336 339 342 343 343 343 344 344 344 344 343 342 343 345 347 347 347 344 346 343 343 342 341 343 340 338 339 338 343 343 344 343 342 343 344 343 342 343 343 343 345 346 346 345 345 346 346 339 333 332
299 296 293 294 298 299 301 303 304 305 304 304 305 306 308 309 310 312 310 310 320 317 316 320 321 321 324 326 327 326 328 328 329 328 326 326 326 326 326 326 326 328 328 329 330 333 335 336 338 341 342 343 342 341 341 340 341 342 342 343 344 344 344 345 343 343 343 342 342 341 341 340 339 337 345 345 345 338 337 342 343 344 344 343 342 344 343 343 345 346 346 346 347 344 335 334 335
300 296 294 297 300 299 302 303 305 306 306 306 306 309 308 310 312 312 310 309 310 316 320 320 319 322 324 325 325 326 326 326 327 327 326 327 327 326 326 327 327 328 330 331 334 333 334 337 338 339 341 340 341 341 341 338 336 337 339 340 342 342 342 342 341 340 339 337 338 338 339 340 340 338 338 338 335 333 331 333 335 335 333 333 343 329 332 336 338 337 338 343 336 338 338 337 335
302 299 302 302 300 299 304 304 306 306 307 306 306 306 306 312 313 311 312 306 304 311 318 322 324 325 325 324 325 326 325 325 325 326 326 326 326 326 327 327 329 330 332 330 331 333 335 337 335 336 335 338 339 340 338 341 339 336 337 338 340 340 340 339 338 337 336 336 337 339 338 334 336 337 337 334 335 333 331 330 331 331 331 332 338 329 328 329 332 334 336 338 338 339 339 338 335
296 299 299 300 301 300 303 304 306 307 305 305 306 308 310 312 312 314 313 310 312 319 321 325 326 327 327 327 327 325 324 323 324 324 326 325 325 326 326 328 328 329 331 330 332 335 337 334 334 336 337 339 338 340 341 339 334 335 336 337 335 335 336 335 335 335 336 336 337 339 336 334 335 337 336 334 333 334 333 330 330 331 331 329 330 331 329 328 330 332 332 337 337 338 337 336 335
300 297 299 302 302 302 304 304 304 306 304 305 308 312 312 311 308 314 312 315 317 322 325 326 327 328 328 325 326 325 325 323 324 325 326 326 326 326 328 328 329 329 330 330 333 337 337 334 333 334 337 339 339 339 339 337 335 336 337 342 336 340 336 334 334 334 335 336 337 337 339 335 336 336 335 333 332 333 333 332 331 330 332 332 331 331 329 328 326 326 328 332 335 335 335 335 334
299 297 300 302 302 302 303 303 304 306 303 307 311 311 311 312 311 313 312 316 321 324 327 327 327 326 326 325 325 325 325 323 323 324 325 326 328 328 329 329 329 330 330 332 334 334 334 335 334 333 337 338 338 337 336 336 336 336 336 333 335 342 332 333 334 335 335 337 337 337 338 334 335 336 336 337 333 333 333 332 330 331 332 332 331 329 328 328 328 325 325 327 330 330 331 333 334
298 299 301 301 301 301 303 303 303 305 306 310 308 308 310 312 315 312 314 316 324 326 326 326 325 324 324 324 325 325 325 323 323 323 325 327 328 328 329 329 329 329 330 333 332 332 333 335 334 335 337 337 337 335 334 334 334 334 335 334 335 340 332 333 335 334 334 336 336 336 337 335 335 335 335 335 334 333 334 332 332 331 330 331 331 330 328 328 328 327 326 325 327 328 329 331 334
300 299 299 299 299 300 301 303 302 305 308 310 308 309 311 314 311 306 317 318 325 325 324 325 324 322 323 324 324 325 325 323 324 325 325 325 327 328 329 329 329 329 330 331 331 331 335 334 334 336 337 340 335 333 333 332 334 333 335 335 336 334 334 335 335 334 334 334 335 336 337 338 335 336 336 335 335 335 335 334 331 331 329 331 331 330 330 329 329 329 328 327 326 326 328 329 333
300 300 299 298 299 299 300 301 302 306 307 310 311 310 313 313 309 305 314 318 323 321 322 322 322 322 323 323 324 325 324 325 325 325 323 323 324 327 327 327 327 329 330 329 330 331 332 332 334 335 337 338 336 333 335 332 332 332 334 334 335 334 335 334 333 333 337 335 336 336 337 336 337 336 337 336 336 336 333 334 333 331 329 330 331 331 330 330 330 330 330 330 329 332 334 333 335
301 299 296 296 297 298 299 299 302 307 304 312 313 308 306 307 304 310 316 318 321 321 321 322 322 322 323 324 324 324 324 325 325 324 324 325 325 327 327 328 327 328 328 329 329 331 330 331 334 335 337 338 335 333 332 332 333 335 335 335 336 336 334 333 333 334 334 335 335 336 336 336 338 335 335 335 338 335 333 333 332 333 331 329 329 330 331 330 331 331 334 337 333 333 334 333 335
301 298 296 296 294 293 299 300 302 302 306 312 309 293 297 304 306 310 316 318 319 318 318 321 322 323 323 323 324 324 325 325 324 325 325 325 325 326 327 327 328 328 327 327 328 330 332 332 335 336 337 337 336 334 333 333 333 334 336 336 339 336 334 333 334 333 336 336 336 336 336 336 336 334 334 333 335 332 332 332 332 333 333 333 331 331 333 334 333 334 335 337 341 333 334 332 332
294 297 295 290 290 290 299 299 299 301 309 309 307 293 294 301 305 312 316 319 317 315 316 319 322 323 323 323 324 324 325 325 325 325 326 326 326 326 327 327 328 327 329 327 327 329 331 331 335 336 340 336 339 335 335 333 333 333 335 338 338 336 335 333 334 334 335 335 336 337 337 337 336 335 335 335 334 333 332 331 332 333 334 335 333 336 335 333 334 334 337 337 332 332 333 335 338
294 292 288 289 289 289 297 301 301 300 306 308 301 292 294 300 303 312 315 317 316 314 315 318 321 323 323 323 323 324 325 326 326 327 326 327 327 326 327 327 328 328 327 327 329 330 330 330 335 335 337 335 335 335 333 333 335 334 335 339 337 336 335 334 334 333 335 337 338 336 336 338 336 337 337 335 332 332 331 331 334 334 336 336 336 336 336 334 334 336 338 336 331 333 334 334 336
291 291 289 289 288 291 293 297 302 304 306 306 302 292 299 300 305 312 314 316 316 313 313 316 319 322 322 323 323 324 325 325 326 327 327 327 327 327 327 328 328 328 328 328 329 329 329 330 336 334 335 336 335 336 335 335 337 337 336 337 337 337 333 334 334 333 332 335 337 336 336 338 337 338 337 335 333 333 333 333 335 335 336 336 335 333 334 337 336 336 337 340 333 332 335 334 334
287 290 288 290 290 289 287 293 300 303 304 299 301 296 299 301 306 311 313 314 314 312 312 315 318 320 322 322 322 323 324 324 324 326 327 328 328 327 327 331 329 329 329 329 329 330 329 331 334 334 336 338 337 337 337 337 338 337 337 337 340 337 335 335 336 335 332 333 335 336 336 339 338 338 336 336 335 335 335 335 335 336 338 337 335 335 335 336 333 333 333 335 336 333 332 334 331
285 287 288 290 290 290 290 293 295 301 300 300 299 297 298 302 305 310 312 314 313 312 312 313 317 318 319 320 321 322 323 323 325 326 328 328 327 327 327 329 328 328 329 329 330 331 330 332 334 335 335 336 337 336 336 336 336 336 336 335 336 337 337 336 339 337 334 334 336 338 338 339 340 337 336 337 335 336 335 335 335 336 337 336 335 334 335 337 336 333 333 334 337 334 333 332 332
292 292 290 291 289 289 291 293 298 302 295 295 296 296 294 302 305 308 311 313 312 312 312 311 316 317 318 318 319 321 322 324 326 327 328 328 328 327 326 328 329 329 329 330 331 330 329 330 332 331 333 333 334 334 334 334 337 337 336 336 335 336 336 337 338 340 339 335 335 337 338 339 339 337 335 335 335 335 334 334 334 336 335 334 333 332 332 335 336 335 333 336 333 337 337 334 332
295 293 293 291 290 290 293 296 298 301 296 293 293 295 295 302 305 306 309 311 311 311 309 309 312 314 316 316 317 320 322 323 326 327 328 327 327 327 326 327 328 329 330 330 330 328 328 330 332 331 332 333 334 333 332 334 335 335 335 335 333 335 335 335 336 337 340 338 336 336 337 339 339 337 336 336 335 338 333 333 333 334 335 334 332 332 333 335 337 336 337 336 333 329 330 332 333
294 293 291 290 291 288 294 295 298 298 296 291 292 292 297 303 306 306 308 309 309 309 308 308 310 313 315 315 316 318 322 325 326 325 326 326 326 327 326 326 329 326 328 329 328 328 327 329 332 332 332 332 333 334 335 334 335 335 335 334 329 331 334 335 334 336 338 339 337 335 336 337 339 336 337 336 336 333 331 331 332 334 334 333 333 333 333 338 338 337 336 332 333 330 328 331 332
293 290 289 289 290 291 293 295 298 299 297 291 292 292 293 301 305 307 307 308 310 311 309 309 310 311 313 314 315 317 320 322 324 325 326 326 326 327 326 325 327 328 327 327 328 327 327 328 332 333 333 333 333 334 334 334 333 335 333 330 332 328 330 335 334 335 337 336 336 336 337 337 337 338 336 337 337 334 331 331 333 333 334 336 333 331 333 334 335 335 335 333 329 330 330 331 332
292 290 290 288 291 291 287 295 296 298 295 292 293 292 292 295 304 307 308 309 309 311 310 309 311 311 312 313 314 317 319 321 322 323 324 325 326 326 327 325 326 327 327 326 326 325 327 328 330 333 334 334 333 334 336 335 334 334 334 334 335 334 332 336 334 334 336 334 334 334 336 337 337 337 337 337 340 335 332 332 333 333 334 336 333 332 333 334 333 334 333 333 328 324 324 325 333
291 291 291 289 290 290 291 290 294 294 295 296 293 289 289 292 298 301 306 309 308 308 309 309 311 313 314 315 315 318 319 320 322 323 324 324 325 325 327 327 327 326 326 326 326 326 327 327 329 333 334 334 334 335 336 334 335 332 332 333 333 332 333 332 330 332 336 337 336 334 335 336 336 336 338 338 340 337 335 334 333 334 333 335 335 332 332 333 333 333 332 331 329 324 324 324 327
288 291 293 294 293 292 293 292 293 286 287 291 292 282 283 288 297 301 303 304 304 305 306 307 309 311 313 313 313 317 320 322 322 323 324 325 326 326 327 328 327 326 327 327 327 327 327 328 329 331 333 334 334 334 335 334 334 332 331 331 330 329 328 329 329 330 332 333 334 335 334 336 335 333 335 338 339 339 336 336 335 335 334 335 336 332 332 332 331 332 332 331 329 327 325 325 325
288 290 293 294 294 293 293 293 291 286 285 290 294 286 280 286 290 295 300 302 303 302 305 307 309 311 313 314 314 315 318 320 322 324 324 324 325 326 327 328 328 327 327 329 329 328 328 329 330 331 333 334 334 334 335 336 333 333 332 332 331 330 328 328 328 328 330 332 332 332 333 334 335 334 335 336 338 339 337 336 335 335 335 335 337 334 333 333 334 333 334 331 330 329 328 326 327
287 290 294 295 296 293 293 292 290 288 290 292 291 289 284 282 291 293 298 300 301 301 303 306 309 311 312 314 314 314 319 321 322 323 324 325 325 326 326 328 329 329 329 330 331 330 329 329 330 331 332 334 335 336 335 336 334 334 332 331 332 330 329 328 327 328 328 332 330 331 331 332 334 335 334 335 336 337 338 337 336 335 335 334 336 335 334 333 334 333 334 331 330 330 329 327 325
290 294 295 294 295 294 293 294 291 290 290 285 286 291 286 280 288 293 296 296 298 299 302 305 308 311 312 314 315 314 320 322 323 323 324 325 325 326 327 328 329 330 330 330 331 331 331 330 331 331 331 333 333 335 336 336 337 335 333 332 331 332 331 330 330 330 329 332 330 330 331 331 332 333 334 334 335 336 339 338 337 336 334 334 337 334 333 334 333 332 332 330 329 329 329 328 325
294 296 297 296 295 295 295 290 292 288 286 282 285 292 285 281 286 289 292 295 296 299 301 305 307 310 312 313 313 314 320 322 324 325 325 326 327 327 328 329 329 329 330 331 331 331 331 331 331 331 331 332 334 334 337 336 336 337 334 333 332 331 332 332 330 328 328 330 330 330 330 330 331 331 332 334 334 335 336 339 339 337 335 335 337 333 332 332 333 333 333 332 331 330 330 331 330
297 297 296 292 290 289 289 289 287 285 281 280 288 290 289 281 286 291 291 291 298 299 299 303 307 309 311 312 313 315 319 321 322 323 325 326 327 328 328 327 328 329 329 329 329 330 330 330 330 331 332 333 335 335 336 336 336 336 335 333 333 332 332 332 330 329 328 328 329 330 330 330 329 329 330 332 332 334 334 339 339 338 338 338 338 334 332 332 332 333 334 333 333 332 331 332 332
297 292 291 287 288 287 285 283 285 282 276 281 289 290 290 282 283 288 292 297 299 300 300 302 305 308 310 311 313 315 319 320 321 322 323 324 324 325 327 327 327 328 328 328 328 329 329 330 330 330 331 333 335 336 336 336 337 336 336 335 334 333 333 333 331 330 329 329 330 330 330 329 329 329 328 328 330 332 334 336 339 339 339 337 337 336 334 333 333 333 333 333 333 333 332 333 331
295 291 289 287 279 282 279 279 281 278 279 287 288 292 289 285 291 293 298 297 298 300 302 303 305 307 308 311 313 315 318 319 320 321 322 322 323 323 324 326 326 326 327 327 328 328 329 330 330 330 331 334 335 336 336 336 336 336 336 335 335 335 334 334 333 332 331 330 330 330 330 330 329 328 328 328 329 330 332 334 336 336 336 337 337 336 336 334 332 332 333 333 333 332 332 331 330
293 291 284 284 281 279 276 274 278 278 284 289 291 292 286 287 291 296 297 299 300 301 303 304 306 306 308 312 314 315 316 318 320 321 322 322 323 324 325 326 326 327 327 327 327 328 330 331 331 331 331 334 336 336 337 336 336 337 337 336 336 336 335 334 334 333 333 331 331 331 331 331 330 329 329 329 331 331 332 333 335 335 336 336 336 335 335 335 334 333 333 333 333 333 332 331 331
294 292 291 287 281 281 277 278 278 281 283 286 292 289 282 286 289 298 299 302 301 302 303 302 304 306 309 312 314 315 315 316 320 321 321 322 323 324 324 325 326 327 327 327 327 328 330 331 332 332 332 334 335 336 336 336 336 336 336 337 336 336 335 335 335 335 334 333 332 332 333 331 330 331 331 331 332 332 332 332 333 334 335 335 336 335 336 335 335 334 334 334 335 333 333 333 332
293 293 293 288 288 287 284 281 282 281 281 283 285 285 287 290 297 301 300 300 301 303 302 303 303 306 307 310 312 313 314 316 319 320 320 321 323 323 324 324 326 326 327 328 328 329 330 331 332 333 333 334 335 336 336 337 337 337 336 336 336 336 337 336 335 335 335 335 334 333 333 332 333 333 333 332 332 333 332 333 334 334 334 334 335 335 335 334 333 333 333 334 333 336 333 332 332
291 292 288 293 296 293 285 284 288 287 283 281 281 288 290 294 298 298 301 300 300 301 301 302 302 304 306 308 310 312 313 314 316 318 320 320 320 322 324 324 325 326 326 328 329 330 331 332 333 333 334 334 335 336 336 336 336 336 336 336 336 335 336 335 335 335 335 335 334 334 334 333 332 332 332 334 334 334 334 334 334 334 334 334 334 335 334 332 331 332 333 332 333 334 334 333 333
291 288 293 296 298 295 287 281 281 282 279 279 284 285 285 288 284 296 297 297 299 299 300 301 302 301 302 305 308 310 311 313 315 318 319 320 321 323 324 324 325 326 327 328 330 332 332 333 334 334 334 334 334 335 335 335 335 335 335 335 335 335 336 336 336 335 336 335 334 334 333 330 330 331 332 333 332 329 331 337 333 331 332 335 335 334 334 333 331 331 333 333 334 333 333 333 333
297 295 298 293 283 285 286 283 279 278 277 277 283 286 285 287 286 293 294 296 297 298 299 300 300 301 302 304 304 307 311 312 313 316 317 319 320 322 323 324 326 327 328 329 330 332 333 333 334 335 335 335 335 335 335 336 336 336 336 335 335 335 335 336 336 336 336 335 334 334 332 332 330 330 332 331 330 330 331 331 333 329 330 332 334 334 334 333 332 331 332 333 333 332 332 331 332
301 300 296 296 290 285 283 285 284 285 278 278 278 286 283 291 290 295 297 297 299 299 298 300 301 302 303 304 304 309 310 312 313 316 318 319 320 322 323 324 325 326 327 328 329 331 331 331 332 333 333 332 332 333 334 334 335 336 336 335 335 336 336 335 335 335 334 334 334 334 333 331 331 330 330 330 329 329 330 331 333 330 330 331 332 332 333 333 333 333 333 333 332 331 331 331 331
291 292 291 295 294 294 292 291 287 283 279 278 278 280 282 290 295 297 298 299 299 300 300 301 302 302 303 304 305 309 313 314 314 317 318 319 320 322 323 325 327 327 327 328 328 328 329 328 329 330 329 328 328 330 332 334 334 335 335 334 334 334 334 335 334 334 334 334 334 334 334 334 328 326 329 330 330 330 331 333 334 332 331 331 331 331 331 332 331 332 332 332 331 330 330 329 328
294 294 293 293 290 289 284 283 290 289 285 281 280 281 284 293 302 300 300 301 300 301 302 301 303 303 303 305 306 310 313 315 316 318 318 319 320 322 324 326 326 326 326 327 327 326 326 326 328 328 328 327 327 327 331 332 333 334 334 334 334 334 334 334 334 333 333 333 333 333 334 331 326 328 328 329 330 330 332 334 334 333 332 332 332 331 331 331 331 331 331 332 332 330 329 328 327
Wind_Speed
3 2 3 3 0 0 1 2 1 3 2 4 5 1 6 1 2 4 4 3 3 3 1 7 8 3 3 5 13 13 13 8 4 1 2 0 0 5 9 9 10 13 12 9 8 8 10 12 15 15 15 14 14 13 12 11 11 11 10 10 11 11 11 11 11 11 12 13 13 13 13 13 12 12 12 12 11 12 13 13 12 14 14 14 14 14 14 13 13 13 12 12 11 12 13 13 13
0 3 3 3 1 1 1 1 1 2 2 3 8 1 9 7 1 3 4 1 1 4 7 13 14 15 14 11 6 13 13 9 6 3 1 1 0 3 1 4 5 10 7 5 4 4 4 6 11 12 14 14 14 14 14 13 12 11 11 11 11 11 10 10 10 11 11 12 12 13 12 12 12 12 12 11 12 12 12 12 14 14 14 14 14 13 13 12 11 11 10 10 11 10 12 12 11
1 4 5 5 3 2 1 2 1 0 0 4 8 5 3 6 2 4 8 8 11 11 11 10 9 5 7 9 17 9 1 2 4 3 3 2 2 2 1 1 1 1 3 3 3 4 4 7 9 9 11 12 13 13 14 14 14 12 12 11 11 11 10 11 10 11 10 11 12 12 12 12 11 11 11 11 11 12 11 13 13 13 13 13 13 13 12 11 11 10 10 9 9 10 10 10 10
2 2 2 2 2 3 1 2 1 1 3 5 7 7 1 4 0 8 7 9 10 7 3 3 8 6 8 13 9 7 1 4 4 5 3 5 5 6 5 5 2 0 2 3 3 3 3 8 13 11 11 11 11 12 13 14 14 14 12 11 11 10 10 11 11 11 11 11 12 12 11 11 11 11 11 10 11 9 11 13 13 13 13 13 13 12 12 11 10 10 9 9 9 9 9 9 10
3 0 2 1 2 2 1 1 2 2 5 2 5 12 10 7 1 5 5 6 4 3 7 7 8 6 7 6 3 2 4 5 4 5 4 2 1 0 2 2 2 1 1 2 4 3 2 8 10 10 11 11 11 11 12 13 14 13 13 12 11 10 10 11 11 11 11 11 10 11 11 11 10 10 10 9 9 12 12 12 12 13 12 12 13 12 11 10 10 9 8 8 9 9 10 9 8
2 3 1 2 0 2 2 2 4 3 7 1 4 9 10 9 4 2 2 2 3 8 10 9 7 4 7 5 4 3 7 2 3 1 1 2 4 5 4 4 4 3 2 3 4 4 3 7 8 9 9 10 10 10 11 11 13 13 12 12 11 11 10 11 11 11 10 10 11 10 10 10 10 10 9 9 12 12 13 14 13 11 11 12 12 12 11 10 9 8 7 8 9 10 9 8 7
1 3 1 2 2 1 2 1 6 3 5 1 4 6 8 8 6 12 7 8 10 13 13 13 16 11 8 0 1 2 4 4 2 3 1 5 5 4 6 4 3 4 6 7 2 4 4 8 8 8 9 9 10 10 10 10 11 11 12 11 11 11 10 10 11 10 10 10 11 10 10 10 10 9 11 12 12 13 13 13 12 10 10 11 11 11 11 10 9 7 7 8 9 9 8 7 6
0 2 0 3 1 1 2 2 4 1 5 4 2 1 7 11 10 8 6 5 3 3 9 10 11 15 3 3 3 5 3 0 2 0 4 5 4 5 7 4 7 8 6 9 2 5 9 11 10 9 10 11 11 11 11 11 11 11 11 11 11 11 11 10 10 10 10 10 10 10 10 10 10 11 12 12 11 12 12 12 12 11 11 10 10 10 10 9 8 6 6 7 8 7 6 5 5
1 1 1 4 1 1 2 2 2 3 1 4 3 2 3 9 9 10 14 8 7 9 6 6 12 11 2 2 3 4 3 4 2 5 7 6 5 6 8 10 10 8 5 7 5 6 8 12 12 11 11 11 12 12 12 12 12 12 12 11 12 11 11 10 10 10 10 9 10 10 9 9 9 12 12 12 11 11 11 11 11 11 11 10 9 9 10 9 7 5 5 5 6 5 4 4 5
0 2 1 2 3 3 2 4 5 4 1 5 2 2 3 5 8 8 9 11 8 19 14 12 11 12 9 5 1 4 2 2 3 7 8 8 7 9 9 8 14 13 8 6 4 2 2 10 10 9 8 9 10 10 10 11 11 11 11 12 12 11 10 11 10 10 9 9 9 8 8 8 7 11 11 11 10 10 11 11 10 11 11 10 9 9 9 8 7 5 4 4 4 4 4 5 6
0 1 1 1 1 2 2 2 3 4 2 2 1 2 2 3 7 6 6 8 6 10 15 12 10 7 4 1 3 1 3 3 2 8 7 8 10 9 6 5 10 14 13 7 3 3 2 2 9 8 7 8 8 8 9 11 10 10 12 13 11 10 10 10 10 10 9 9 8 7 7 6 9 12 11 10 10 10 10 10 10 10 10 10 9 9 8 7 5 4 2 2 3 3 3 5 5
1 1 1 1 2 3 4 0 3 2 2 2 1 1 3 2 1 3 4 8 5 10 5 3 6 7 5 1 3 2 6 3 4 5 5 5 9 10 7 5 7 4 4 6 2 5 3 3 3 8 10 9 9 10 10 12 11 11 12 11 12 10 11 11 10 10 10 10 9 8 7 7 10 12 11 10 10 10 10 10 10 10 9 9 9 8 7 6 5 3 1 1 1 2 3 4 5
2 1 2 2 3 2 1 1 2 1 2 3 3 3 4 2 5 7 5 6 4 8 4 8 15 5 3 3 3 4 4 1 6 6 3 4 6 7 7 5 2 4 4 4 4 5 5 4 3 2 6 10 9 10 10 12 13 13 13 14 12 11 11 11 11 10 10 10 10 9 8 7 9 11 11 10 10 10 9 9 9 8 8 8 7 7 7 5 4 3 2 2 2 2 3 5 5
2 4 6 2 0 1 1 1 0 2 1 3 4 1 3 3 3 7 7 7 3 4 1 5 6 10 3 1 6 5 2 7 6 7 3 2 3 4 6 5 5 5 3 3 6 5 6 6 3 3 3 3 2 5 10 12 12 14 15 14 12 12 11 11 11 11 10 10 10 9 9 8 8 8 10 9 10 10 9 8 7 7 7 6 6 6 6 4 3 3 3 3 2 3 3 5 6
4 2 1 2 1 2 1 1 3 1 2 2 3 1 3 1 6 4 11 10 2 4 6 3 5 3 5 7 5 7 2 9 6 6 5 4 4 1 6 5 6 5 3 4 4 6 6 5 3 2 3 3 4 1 1 6 12 12 13 14 12 12 11 11 11 11 11 10 11 10 9 9 8 9 10 9 9 10 9 8 7 6 6 5 5 5 4 3 1 3 4 4 3 2 4 4 6
4 2 1 2 3 0 4 1 1 1 2 2 3 1 5 3 3 4 2 5 3 2 2 2 3 1 7 7 6 8 8 9 5 4 6 6 3 2 5 5 6 4 3 2 4 4 4 3 4 4 6 5 3 2 2 4 8 13 14 14 13 12 12 11 11 11 11 10 11 10 10 6 6 6 10 7 9 9 8 6 6 5 5 4 4 4 3 2 2 4 5 4 3 3 3 4 6
1 3 3 1 4 1 3 1 2 2 2 3 3 2 3 2 4 3 3 6 9 4 7 5 2 4 7 3 1 8 8 9 7 5 6 6 5 2 4 3 3 3 4 3 3 5 6 4 2 4 6 7 5 3 2 2 6 8 10 13 14 12 11 11 10 11 10 9 8 9 8 4 3 2 3 2 7 4 6 6 5 4 4 3 4 4 3 1 1 3 4 4 3 3 2 4 5
3 5 3 2 4 2 4 4 5 3 3 3 1 3 8 6 4 4 8 13 12 9 9 4 8 7 4 3 6 8 7 7 7 6 6 6 4 5 3 3 3 4 4 4 2 5 5 3 2 7 6 7 6 5 3 3 5 6 5 5 5 7 8 8 6 3 7 4 8 6 4 3 3 3 3 4 2 2 3 6 5 4 4 3 3 3 3 2 1 3 4 4 3 3 3 1 3
4 1 3 7 4 6 5 5 4 4 3 4 4 4 7 8 9 5 6 6 9 10 6 6 8 4 4 4 5 7 6 7 7 4 5 8 7 8 5 2 2 2 4 3 2 3 4 3 2 8 6 7 7 5 5 4 5 4 4 4 4 6 5 4 3 4 3 4 4 5 4 4 4 3 1 2 1 1 1 6 6 5 4 3 3 2 2 2 2 3 4 4 3 3 0 1 3
4 6 3 6 7 5 7 5 6 6 7 5 5 3 4 6 3 3 5 9 7 10 8 6 8 8 6 5 5 6 6 6 6 5 6 6 6 7 7 5 3 1 2 4 3 2 2 1 4 7 7 6 6 5 4 4 4 3 4 4 4 4 5 4 4 2 2 2 4 4 4 5 5 5 6 7 6 2 2 6 6 5 5 3 3 2 1 1 1 2 3 4 2 1 1 2 3
2 3 5 7 7 3 7 5 9 9 8 8 5 3 5 3 3 4 9 8 5 6 10 12 12 13 11 10 8 7 7 7 6 5 5 5 4 1 4 4 4 3 3 2 3 3 3 2 4 5 3 4 4 4 4 3 2 3 3 3 4 5 5 4 4 4 4 2 2 2 3 2 2 3 3 3 5 4 1 1 1 1 1 0 1 1 0 1 0 1 1 2 2 2 2 3 2
1 8 9 8 2 4 10 7 10 8 6 6 5 6 4 2 3 7 7 5 5 6 7 10 14 15 15 12 9 7 7 7 6 6 6 5 6 5 3 3 2 3 2 3 4 4 2 5 6 5 0 2 3 6 5 4 4 3 3 4 3 3 4 6 5 4 4 2 2 3 3 1 1 2 2 5 5 5 3 3 2 2 2 1 0 2 1 1 1 1 2 2 2 4 4 3 3
8 5 4 6 6 6 2 4 9 10 5 6 8 6 3 2 2 2 3 4 3 5 8 12 13 15 14 10 10 10 8 8 8 8 7 6 5 4 5 4 6 7 5 5 4 3 5 7 6 6 7 5 4 5 5 4 4 3 4 4 5 4 5 5 5 5 5 4 3 3 5 4 3 1 2 3 5 5 5 4 4 3 3 3 3 3 3 2 2 3 3 3 2 3 4 4 3
8 9 3 7 6 8 5 5 8 9 9 8 6 5 6 8 5 2 5 3 7 7 10 11 11 11 10 10 10 12 11 10 10 9 9 8 7 7 6 6 4 3 4 5 4 5 6 9 7 5 5 6 6 5 5 5 3 3 3 4 5 5 6 5 5 5 6 6 6 4 4 5 4 5 4 3 5 4 5 3 3 4 3 4 4 4 3 3 2 4 3 4 4 4 4 5 5
8 6 4 6 3 6 8 6 8 9 6 9 11 9 11 9 7 5 5 8 10 10 11 12 10 9 8 9 10 9 9 8 8 7 5 4 5 5 5 4 4 5 6 6 5 6 5 7 8 7 4 5 6 6 6 5 4 3 2 4 6 6 5 6 6 5 5 5 6 6 6 6 5 5 5 5 6 5 5 5 5 4 4 5 4 4 3 4 4 4 4 5 4 4 5 6 6
3 6 7 3 3 5 12 9 8 11 5 12 9 8 6 3 8 3 6 7 10 12 12 12 11 9 9 9 9 9 9 10 8 8 9 6 5 6 6 6 6 7 6 6 6 5 5 5 7 8 6 6 6 5 5 5 4 4 5 5 6 5 6 5 5 6 6 6 6 7 7 7 7 6 6 3 5 4 3 6 5 5 5 5 5 5 5 5 5 3 4 5 5 6 5 7 6
3 6 5 4 4 3 4 11 8 13 8 13 12 7 6 4 5 2 2 8 11 12 12 10 11 11 8 7 7 7 9 9 10 8 6 5 6 8 7 7 7 5 5 5 4 5 4 5 5 5 6 5 5 5 5 5 5 6 6 5 4 5 5 5 4 5 5 5 6 7 6 5 6 6 6 5 5 5 3 3 5 4 5 5 6 6 5 6 6 6 6 6 6 5 7 6 7
5 6 3 5 6 4 3 4 11 6 2 9 15 6 4 6 1 6 9 7 13 14 11 10 9 8 7 7 6 5 6 6 6 8 10 9 8 7 8 8 7 6 7 7 5 4 4 4 5 4 5 6 6 5 5 6 6 7 6 5 5 5 5 5 5 6 6 5 5 6 6 5 6 6 7 6 7 6 4 3 2 3 6 6 6 6 6 5 5 6 3 5 7 7 4 2 1
9 6 8 5 5 6 2 5 4 10 3 5 13 9 1 4 4 4 9 10 11 13 10 9 9 8 8 8 6 5 6 6 6 6 9 9 7 6 8 6 8 8 5 6 6 5 5 5 5 5 4 6 6 6 6 5 5 6 6 5 5 4 5 5 6 6 6 6 5 6 6 6 6 6 6 6 6 6 5 3 3 4 6 6 6 5 4 3 4 4 3 3 1 0 2 2 3
7 5 3 5 4 6 11 1 4 2 6 13 10 2 7 11 9 3 10 11 10 11 9 8 7 8 8 8 7 6 5 5 7 8 7 7 7 7 8 7 7 8 7 5 5 6 5 3 3 4 4 6 6 5 4 5 5 4 3 3 4 4 5 4 4 4 6 6 6 5 4 5 5 6 6 5 5 5 5 6 6 5 6 7 6 5 5 4 5 4 2 2 2 1 1 0 2
5 7 1 3 2 6 8 4 7 5 11 14 7 6 7 9 9 5 9 13 14 12 10 8 9 9 9 9 8 8 8 8 9 7 7 8 8 8 8 7 8 7 6 6 8 8 5 5 3 3 4 4 4 4 4 4 3 2 2 2 2 4 4 4 4 4 5 5 5 5 4 4 4 6 6 6 5 5 6 7 7 7 5 3 5 5 4 3 4 3 4 4 1 0 1 0 1
2 5 7 4 4 8 10 5 11 10 5 10 7 1 8 9 9 8 10 11 12 11 10 10 10 9 9 9 9 8 9 8 7 7 8 8 8 8 9 9 9 8 9 9 7 6 6 5 4 4 4 5 4 5 4 4 3 2 3 4 3 2 2 3 3 4 4 4 5 5 5 6 6 5 6 7 7 7 8 7 7 6 5 4 3 3 4 5 4 4 4 5 3 1 2 4 1
2 4 7 8 4 8 7 5 17 17 14 8 10 6 1 4 5 8 10 12 12 10 11 11 12 12 11 10 9 9 8 7 7 8 8 8 7 7 8 9 10 10 9 8 9 7 6 6 6 6 7 6 4 4 5 4 3 2 1 1 1 2 2 2 1 2 2 2 3 4 5 5 6 5 6 6 7 7 6 6 5 6 5 5 4 3 4 4 4 4 3 4 5 3 4 4 3
6 1 5 5 4 5 4 4 2 10 15 7 6 3 7 2 9 12 12 12 12 9 12 12 11 10 11 9 9 9 9 9 10 10 9 8 6 8 7 8 8 8 8 9 9 10 10 8 7 7 6 5 4 4 4 3 2 2 2 1 2 2 2 2 1 0 1 2 2 3 4 5 5 5 6 6 6 6 6 6 5 5 4 4 4 4 3 3 3 3 3 2 3 3 2 3 3
2 4 4 9 4 3 5 2 4 4 6 13 12 8 6 3 6 13 16 12 11 12 11 13 12 11 10 9 9 10 10 10 12 10 11 9 7 7 7 8 8 7 6 8 8 7 6 6 5 5 6 6 5 4 3 3 3 2 1 2 1 3 3 2 0 1 0 1 2 3 4 4 5 4 5 5 5 5 4 4 6 5 4 5 4 3 3 3 3 1 3 2 2 2 4 3 2
9 8 8 5 4 5 1 4 1 10 5 5 8 11 7 5 9 10 9 11 12 13 9 9 11 11 11 11 10 10 11 13 10 10 11 9 8 8 7 7 8 7 7 7 8 7 6 5 4 4 4 5 5 5 4 3 3 3 4 3 2 4 3 2 1 2 2 1 1 3 3 3 3 3 4 4 3 4 4 5 5 4 3 3 4 4 3 3 4 3 2 3 3 1 0 1 1
8 7 9 7 6 4 4 2 4 11 4 5 9 10 6 9 13 14 13 11 11 11 10 9 10 11 12 12 12 13 12 14 10 10 11 11 9 7 7 7 7 8 8 8 8 8 8 8 6 6 5 5 6 5 4 4 3 4 3 5 4 4 4 4 4 4 3 3 2 2 2 2 2 2 3 4 5 4 4 4 4 3 4 4 4 4 3 3 3 4 4 2 4 3 2 1 0
4 9 9 9 2 3 3 5 5 1 3 3 5 3 5 11 12 13 10 12 16 16 13 11 12 13 13 15 14 13 13 6 7 6 7 7 6 7 7 7 8 10 8 9 9 10 9 8 8 7 5 5 6 6 5 5 6 6 4 4 3 3 4 5 5 4 4 3 3 3 3 2 2 3 3 3 3 3 3 3 3 5 4 4 3 2 2 2 3 3 3 2 0 3 3 2 2
4 7 4 4 7 3 3 4 2 3 1 6 4 5 8 9 11 10 15 19 17 16 16 17 16 14 12 13 14 13 9 9 9 10 9 10 9 9 9 8 9 11 11 11 10 8 8 9 8 7 6 6 6 5 6 6 5 4 5 4 5 2 2 3 2 1 2 3 4 4 4 4 3 4 3 3 2 2 2 3 4 4 4 4 3 3 3 3 3 3 4 4 2 0 1 0 2
7 8 3 5 4 1 6 9 1 2 3 3 6 6 6 3 5 12 18 18 13 14 15 13 13 16 14 15 15 14 13 11 12 13 13 11 11 10 9 9 10 9 9 8 9 10 9 8 8 9 9 8 7 7 8 6 5 5 4 3 3 4 3 3 3 3 5 4 5 4 5 6 6 5 4 3 3 2 3 4 3 3 4 3 3 4 4 3 2 1 2 2 3 1 1 1 0
6 5 4 5 3 4 5 6 3 3 3 1 2 2 7 0 6 6 8 7 8 10 10 7 9 12 15 13 12 14 16 15 13 12 11 11 11 12 13 12 9 10 11 11 11 11 9 11 10 10 10 10 8 8 8 6 4 4 3 1 2 1 1 2 2 3 4 5 5 4 5 3 3 4 5 5 4 4 3 3 3 3 3 3 3 4 4 4 2 1 2 2 2 2 2 1 1
3 5 7 8 5 7 6 4 3 3 4 4 2 4 3 3 8 14 9 9 12 8 12 14 12 10 8 10 13 11 12 13 16 16 16 15 14 12 10 10 11 11 11 11 11 11 9 8 8 8 7 7 8 8 8 7 6 6 5 5 5 5 4 3 6 6 5 6 6 2 3 4 3 2 2 4 5 4 4 4 4 3 3 3 3 3 2 1 2 3 4 4 3 1 1 2 2
3 5 5 7 6 3 2 6 1 1 2 3 0 3 5 6 5 9 8 12 16 7 14 17 13 12 12 13 12 13 14 12 11 12 12 12 12 12 12 12 13 12 12 9 9 9 10 8 8 8 7 7 8 9 9 8 7 6 8 8 7 7 7 5 3 3 5 5 3 4 4 4 5 5 4 4 5 5 4 4 4 3 4 3 3 3 4 4 4 3 3 4 4 3 2 2 3
4 4 3 1 0 3 3 2 4 2 2 3 3 2 2 4 10 4 13 13 14 10 11 14 14 14 15 14 13 12 13 14 14 14 14 14 14 15 15 15 13 14 11 9 9 9 10 10 8 8 7 7 7 8 10 10 9 8 7 7 6 7 7 7 5 5 4 4 5 5 4 5 5 6 6 5 5 4 4 4 4 4 4 4 4 6 6 4 4 2 3 3 3 4 4 4 3
4 5 6 4 5 4 3 1 3 1 1 7 7 2 1 3 9 3 7 9 9 12 13 15 16 16 17 16 14 12 13 15 15 13 14 14 15 14 14 13 14 11 10 11 11 10 9 8 8 7 8 7 7 8 10 10 9 9 9 7 7 6 6 6 3 3 4 5 5 5 5 5 5 5 6 6 6 6 5 5 5 5 5 5 5 5 4 4 5 4 5 5 5 4 4 3 2
6 6 1 2 2 4 3 3 1 2 2 5 5 1 3 7 7 8 1 6 12 15 16 15 18 19 19 16 10 9 10 11 13 16 16 15 15 15 15 15 11 11 10 9 8 8 8 8 8 8 9 8 7 8 9 10 10 8 8 8 9 6 5 5 3 4 4 4 6 6 5 5 5 5 5 6 6 6 6 6 6 6 6 5 4 4 4 4 4 4 4 5 5 5 4 5 6
2 2 2 2 4 3 2 2 2 3 3 6 9 6 4 5 8 8 5 7 12 11 5 5 7 9 9 10 11 12 12 13 13 11 12 14 14 15 12 11 12 9 8 8 9 9 8 9 9 10 10 9 8 9 9 10 10 9 9 9 9 8 7 6 5 5 4 4 6 6 6 6 4 5 4 5 5 5 5 5 5 5 5 5 5 5 6 6 6 6 5 5 6 7 5 6 5
1 1 1 5 5 7 2 3 4 1 5 6 9 6 7 5 7 7 7 7 7 14 13 13 13 14 13 10 11 12 13 14 13 11 11 10 8 9 9 10 9 10 8 9 9 8 9 10 10 11 10 10 10 10 10 10 9 10 9 9 10 9 8 7 8 8 7 7 7 7 5 5 4 4 4 4 4 4 5 6 6 5 5 5 6 6 5 5 5 5 5 5 5 6 4 4 4
1 3 5 3 5 4 3 2 2 4 5 7 2 1 1 5 11 8 4 4 3 7 11 14 16 15 14 14 14 14 15 14 12 11 11 10 12 12 11 12 9 9 11 12 11 10 9 10 11 13 12 11 11 10 11 11 10 10 10 10 10 9 9 8 8 8 6 7 6 6 5 6 5 4 4 4 4 6 5 5 5 6 6 6 6 6 5 5 5 5 5 5 5 5 6 6 5
1 4 2 3 1 1 4 4 1 4 7 7 8 2 5 5 7 6 8 4 6 7 7 9 15 17 18 17 15 14 13 13 12 12 13 12 13 13 13 13 12 10 11 11 10 10 10 10 12 13 13 11 10 10 10 10 10 10 9 9 9 8 9 9 8 8 7 7 6 6 6 6 6 7 6 7 6 6 5 5 4 5 5 5 6 6 6 6 5 6 5 5 5 6 5 6 6
9 5 8 7 6 3 3 3 5 7 8 6 4 1 4 0 5 0 4 1 4 5 5 5 7 10 11 12 12 12 11 11 12 12 13 14 14 14 13 12 11 10 10 10 9 10 10 11 11 13 12 11 10 10 9 10 10 9 8 8 8 7 8 8 8 7 7 7 6 6 6 5 5 6 8 7 5 6 6 6 6 6 5 5 5 5 6 5 5 5 5 6 6 5 5 5 5
4 4 6 4 7 6 5 7 5 4 3 3 2 4 4 3 3 3 0 2 3 4 6 8 9 8 8 9 11 12 12 12 11 12 13 14 13 11 9 9 10 10 10 9 11 10 10 11 12 13 13 12 12 11 11 11 10 9 9 9 9 8 7 6 6 6 6 6 6 6 5 4 6 7 6 4 7 8 7 6 5 5 5 5 5 6 5 5 5 5 5 5 6 4 5 6 6
5 3 4 10 8 8 2 2 1 1 2 6 2 5 3 3 2 1 1 2 5 4 6 8 10 12 11 11 11 11 11 10 9 10 11 10 5 7 10 10 9 8 8 10 11 12 13 11 10 11 11 10 12 13 12 11 10 10 10 10 9 8 8 8 8 8 8 6 5 5 6 7 8 4 4 5 6 5 5 5 5 5 5 6 6 6 7 5 4 4 4 5 6 5 6 7 6
3 3 10 1 2 3 5 5 1 2 5 6 1 6 3 4 3 3 2 3 6 5 6 7 7 8 12 12 12 12 12 12 12 11 10 10 11 12 10 8 9 10 11 10 11 11 10 10 11 12 11 12 12 12 12 11 11 10 9 10 9 10 9 9 8 8 7 6 4 5 5 6 7 4 4 5 3 3 3 4 4 2 5 7 7 7 6 5 5 5 5 6 6 6 6 5 5
11 11 6 6 3 3 3 2 4 1 3 3 3 5 5 8 6 3 6 7 8 8 6 5 6 6 8 8 10 12 14 11 10 9 9 9 10 11 10 10 9 8 8 10 10 10 9 8 9 11 12 12 10 8 8 8 9 8 8 9 9 9 8 8 7 7 7 7 6 6 7 8 6 4 6 6 4 5 4 4 5 8 7 5 5 6 6 5 5 6 6 6 6 5 6 6 6
10 2 1 2 6 4 4 7 4 4 5 0 6 1 7 6 7 15 15 14 14 10 5 8 10 10 8 8 7 10 11 12 12 12 11 12 12 12 12 10 9 9 7 7 9 8 9 9 9 9 7 5 5 7 8 9 9 8 8 7 8 8 7 7 7 8 8 8 7 7 7 8 7 4 4 6 6 6 7 5 7 8 6 5 5 5 6 6 6 7 7 7 6 5 5 5 5
5 7 2 1 1 4 3 0 5 5 4 4 4 5 4 6 7 14 16 16 15 14 13 10 9 9 10 10 9 8 9 9 11 12 13 13 13 11 9 9 10 7 6 6 8 10 9 7 8 8 9 8 7 7 7 8 8 8 8 9 8 7 8 7 7 8 8 8 7 8 8 7 8 5 6 8 10 10 8 7 8 8 7 6 7 6 5 5 5 6 6 5 4 5 5 4 3
10 11 10 7 4 2 3 9 1 3 2 3 3 7 6 8 4 12 14 14 10 7 11 11 10 11 10 7 8 9 9 9 11 11 12 11 10 10 10 7 4 5 6 8 8 6 6 8 9 9 7 8 9 7 7 7 7 8 9 9 9 7 7 6 7 7 7 7 7 7 7 5 10 12 14 13 14 12 10 9 9 9 9 8 8 8 7 6 6 6 6 4 5 5 5 4 3
Wind_Direction
304 331 321 342 203 97 61 19 47 305 51 264 284 270 264 193 253 304 147 166 102 324 313 58 61 67 95 119 110 86 41 61 7 147 255 264 164 146 138 148 156 159 165 157 163 150 147 147 143 142 140 140 140 141 139 138 137 133 130 126 122 119 118 118 119 119 118 117 116 114 115 115 115 114 113 111 113 112 117 123 125 112 113 118 117 116 114 113 112 112 114 114 113 109 103 101 104
305 330 353 347 328 83 348 131 95 334 28 323 257 207 259 278 38 302 93 235 165 136 93 90 88 94 102 121 118 76 49 54 47 66 252 130 235 17 12 155 158 156 143 140 132 123 121 128 133 137 139 142 143 145 143 144 141 137 132 127 125 122 122 122 123 121 120 117 116 115 115 115 113 110 110 113 115 120 124 129 116 117 119 118 117 116 114 114 114 115 115 115 117 112 106 105 105
36 15 357 6 33 76 230 49 308 356 56 298 282 208 315 314 20 117 159 153 136 136 131 112 101 71 72 70 46 59 221 158 117 153 162 231 205 276 188 241 205 100 85 105 121 123 122 128 130 129 136 140 144 146 146 145 143 136 133 129 126 126 126 127 125 124 120 119 118 117 118 118 117 114 115 118 122 124 130 116 115 118 118 118 117 114 112 111 111 113 114 113 114 109 106 103 106
109 70 95 61 337 22 60 19 114 195 269 236 294 280 235 285 286 160 169 150 147 159 150 74 61 337 80 79 126 96 56 275 198 167 168 177 189 188 187 186 165 20 9 85 112 108 136 138 135 135 139 143 148 148 146 145 141 136 134 131 128 129 130 129 130 127 121 120 119 119 119 119 117 118 121 122 125 128 117 116 121 120 118 116 114 113 112 113 114 114 117 118 115 108 103 102 106
56 62 107 88 108 357 76 191 215 96 262 208 259 289 304 326 32 146 193 160 162 164 110 118 83 41 62 68 2 96 246 271 352 339 7 20 14 165 130 132 70 42 22 12 111 95 101 133 134 133 138 144 151 153 148 145 138 136 135 133 132 131 130 129 131 128 126 120 115 115 118 117 120 122 123 121 115 118 117 114 113 115 119 119 115 113 112 111 109 110 113 111 108 103 101 99 100
45 60 349 92 156 189 46 339 316 280 244 182 309 298 329 304 249 21 10 106 132 83 89 65 106 133 38 18 356 345 349 23 344 107 40 346 50 2 19 48 38 45 357 351 87 87 88 133 131 130 133 142 150 150 145 141 139 137 136 134 133 132 134 132 128 125 121 117 115 116 117 119 119 121 123 122 116 115 112 112 116 123 125 120 117 115 112 108 105 106 106 104 100 98 96 95 93
346 36 5 22 345 57 172 229 272 263 319 163 265 308 316 336 134 113 139 84 53 51 69 99 112 107 84 70 82 167 267 266 283 10 325 141 109 65 41 35 55 43 2 334 6 100 123 141 137 133 139 143 145 146 142 141 142 139 136 135 136 136 134 131 125 121 119 117 115 116 118 120 121 124 116 109 110 110 111 114 122 126 118 111 114 114 111 107 104 102 98 93 91 90 91 91 87
95 101 310 92 285 33 279 241 268 26 304 19 319 295 339 32 12 36 30 36 358 60 77 97 99 89 100 297 158 253 274 171 306 79 89 99 109 83 65 24 29 41 22 320 231 150 151 156 152 147 149 151 151 152 151 149 146 140 138 136 135 136 131 128 121 120 120 117 121 122 125 125 126 120 106 107 109 110 114 123 125 124 113 116 117 116 108 107 103 97 86 83 83 86 89 87 81
351 79 332 65 355 356 349 284 355 330 262 331 314 209 272 50 47 69 50 49 73 56 82 91 96 82 240 30 191 263 273 169 144 85 71 52 43 64 75 67 72 57 309 229 228 158 159 164 158 157 156 156 158 160 157 152 149 146 142 139 137 130 135 128 123 122 122 124 125 127 127 128 130 118 113 113 114 117 121 125 127 121 120 121 123 115 109 105 104 94 83 81 80 78 71 67 58
6 96 281 144 141 284 319 302 84 242 209 260 261 350 57 43 62 67 91 69 93 85 72 75 76 118 188 133 288 284 287 108 122 88 64 52 48 61 74 100 119 144 195 230 235 151 151 154 152 156 156 157 160 159 154 147 150 147 141 135 132 133 134 124 122 122 122 124 124 124 128 130 129 117 115 116 121 127 128 126 124 122 123 127 126 113 108 107 107 99 88 80 74 61 46 37 40
4 3 167 54 352 280 258 315 169 245 205 207 270 8 43 124 103 80 91 103 76 97 118 96 62 119 128 200 225 302 345 38 347 111 96 93 82 77 102 142 146 164 168 186 158 95 66 89 149 148 148 148 154 150 151 144 145 148 138 137 137 138 131 125 123 121 121 124 123 124 123 118 116 115 112 119 124 125 125 125 123 119 120 120 117 113 112 112 110 108 89 80 64 46 26 30 28
26 155 36 151 224 200 242 137 210 257 275 190 112 283 343 11 9 65 64 78 64 64 41 172 166 163 71 331 279 325 343 355 39 54 94 116 105 116 135 176 173 164 105 117 95 109 114 116 137 153 145 151 156 159 155 150 155 148 140 141 139 131 135 130 125 123 123 125 125 117 114 105 118 116 117 122 121 124 127 124 121 119 119 120 119 116 115 115 117 120 122 358 15 11 2 12 16
143 128 106 93 228 149 245 306 247 203 310 306 193 175 175 92 104 113 89 85 67 77 35 122 165 139 132 214 265 312 303 71 88 87 86 123 118 133 146 144 135 125 115 109 81 64 37 42 51 117 138 144 151 154 153 157 156 151 145 153 138 131 132 132 128 125 126 126 123 122 116 108 110 122 122 124 125 129 129 125 122 118 120 118 115 109 107 112 122 137 168 251 300 327 333 352 354
151 180 127 215 350 183 189 266 183 126 292 235 293 188 153 142 146 135 122 87 61 91 228 137 118 106 87 351 305 302 224 96 92 98 89 98 111 143 130 113 119 112 100 92 95 83 65 34 7 91 101 115 113 155 160 160 159 158 157 152 140 135 135 136 131 130 127 127 124 124 123 119 119 126 127 127 132 132 129 127 119 118 114 110 105 100 102 107 121 157 193 226 268 304 328 337 342
206 173 94 148 281 43 275 76 274 203 243 219 243 207 117 144 141 142 113 111 132 168 149 66 177 82 215 166 255 237 154 102 102 110 125 130 117 133 84 104 91 95 109 110 105 108 114 130 124 127 113 101 110 110 129 167 158 159 160 150 142 139 138 141 138 133 130 130 130 127 126 127 136 144 138 137 138 137 136 127 119 117 115 108 102 98 94 105 141 198 208 212 229 286 312 331 331
188 107 101 170 269 161 276 171 147 69 260 218 256 175 121 148 138 111 190 129 145 22 336 85 14 163 168 178 213 201 94 101 100 120 132 127 118 101 104 101 102 105 114 110 97 85 91 121 119 151 124 125 120 123 150 142 167 163 159 150 148 145 145 146 143 137 135 133 134 133 134 129 126 139 143 139 145 144 133 126 117 121 118 112 104 96 94 105 184 226 224 205 201 240 286 314 321
89 91 284 344 275 181 256 187 159 268 249 266 286 236 124 100 69 79 123 95 90 34 50 7 98 13 151 218 212 95 91 109 120 137 127 131 148 153 93 90 111 120 109 96 120 106 116 170 239 146 143 141 139 145 167 159 156 164 149 154 153 152 147 143 150 143 137 134 129 137 127 89 89 87 92 125 147 144 145 130 129 132 126 121 112 102 96 112 177 221 227 209 198 210 261 303 315
111 189 165 248 202 168 219 210 184 202 133 248 300 185 135 133 144 145 87 68 88 76 69 55 48 55 13 347 57 81 97 114 140 146 149 148 174 154 120 146 177 145 115 125 133 121 154 207 238 148 147 147 145 156 161 157 149 158 160 154 148 147 148 148 144 138 135 124 129 114 110 117 96 98 124 129 50 147 147 153 147 154 146 138 124 111 103 101 147 195 225 215 201 202 240 341 309
176 156 116 220 191 233 174 206 185 123 230 208 210 161 155 169 148 173 93 123 112 89 80 92 89 61 40 51 78 106 122 137 150 164 163 166 179 174 147 165 210 124 137 146 144 148 176 202 187 143 148 148 145 158 163 166 150 146 157 140 150 144 144 140 129 145 123 126 121 133 131 131 133 113 115 134 119 125 211 164 165 173 163 165 139 124 104 113 150 187 217 226 201 214 233 297 294
225 128 199 231 208 228 217 184 191 196 171 184 199 215 147 189 135 162 135 151 134 137 137 113 125 149 165 168 157 136 139 142 160 170 178 190 198 174 139 169 189 174 186 156 155 191 167 164 124 137 145 145 141 151 146 143 156 130 143 149 145 139 135 157 142 125 105 109 138 148 139 150 144 140 177 178 176 168 230 179 181 187 182 176 168 78 44 163 178 198 221 237 248 258 224 284 281
249 87 179 221 222 222 262 183 192 211 159 176 164 147 127 198 164 128 149 110 157 192 179 161 170 168 170 176 167 153 158 159 170 182 178 192 217 174 134 169 176 170 204 130 154 187 176 122 94 89 105 132 131 137 128 136 116 111 128 136 145 145 149 115 95 95 90 64 52 54 44 48 92 164 152 139 131 145 114 114 173 104 68 25 118 119 281 300 90 302 299 273 292 277 275 266 289
101 209 205 206 178 198 240 209 189 192 162 162 143 138 161 164 80 144 160 135 188 193 200 165 164 165 166 173 171 157 168 168 169 179 189 192 187 176 140 159 145 143 168 156 179 176 145 100 79 106 325 99 147 141 151 148 130 129 143 143 117 106 117 120 117 122 124 121 85 85 96 75 350 35 122 150 149 146 137 138 151 153 117 234 227 204 255 247 224 246 291 294 306 319 298 291 299
235 267 238 230 201 202 250 205 190 180 158 158 147 168 117 109 125 146 133 135 180 170 145 156 160 167 172 159 152 160 172 180 177 183 183 195 195 171 162 183 170 164 172 169 163 154 119 113 158 146 161 147 148 138 133 124 140 149 130 131 123 124 130 135 146 145 145 126 131 152 142 171 161 186 169 175 155 155 157 157 168 165 183 223 240 220 239 231 204 214 224 238 267 289 291 286 274
210 238 245 256 191 214 232 220 172 189 152 166 151 143 134 145 135 197 103 121 125 126 133 143 152 154 151 152 165 167 177 180 185 183 182 193 192 176 166 176 177 152 148 158 155 143 132 146 167 165 158 150 139 128 127 141 152 150 166 144 132 153 150 162 166 165 153 149 163 154 158 177 177 163 194 188 157 157 170 175 178 178 193 220 233 219 233 247 217 209 216 230 217 225 251 261 252
208 253 258 266 154 217 223 210 172 189 173 121 137 144 171 171 158 124 131 130 126 124 121 130 141 146 158 159 166 168 171 180 180 178 183 206 204 164 156 165 166 162 155 161 156 138 144 153 152 173 170 145 137 139 140 149 147 152 140 152 159 165 164 176 173 159 148 156 160 156 164 172 185 164 183 190 159 172 170 174 190 197 201 222 225 235 209 243 244 214 223 233 226 225 223 246 249
251 230 248 246 233 221 202 198 173 186 158 147 138 161 188 180 107 82 160 133 130 126 121 135 143 152 166 175 167 171 176 178 175 172 184 185 182 166 167 168 169 171 170 160 154 152 153 154 160 170 164 153 144 139 140 137 153 161 180 191 182 166 181 175 162 162 164 157 164 171 175 175 171 163 180 171 154 173 194 172 182 204 205 220 221 230 217 215 241 240 234 234 233 231 228 232 245
234 239 224 255 257 248 189 178 188 187 155 153 144 155 169 195 91 171 184 145 132 125 134 148 147 159 172 170 174 177 173 183 172 170 156 169 176 176 169 165 170 166 154 164 165 156 162 158 165 160 157 152 146 148 148 153 162 175 185 190 180 176 177 163 163 163 158 166 169 172 183 172 163 169 168 156 161 175 208 190 181 199 215 220 216 228 214 213 224 228 218 225 234 232 242 228 213
292 261 305 317 290 285 227 206 178 134 166 165 136 144 151 186 341 199 171 166 141 135 148 155 152 156 166 172 179 183 176 178 169 158 168 172 182 179 170 169 166 159 170 176 178 165 165 169 167 174 164 152 156 156 155 157 171 178 177 175 181 183 170 172 170 171 161 166 170 171 169 166 170 169 168 164 165 172 185 214 215 194 224 218 215 224 224 221 224 238 240 236 224 203 175 150 113
312 308 297 277 322 333 284 183 171 159 155 137 114 81 277 241 220 224 160 151 143 142 154 160 155 159 161 171 178 186 195 177 175 179 183 183 177 174 174 172 158 162 183 172 167 170 181 179 172 180 168 163 162 166 166 175 174 178 170 176 187 182 188 183 174 177 164 165 170 172 167 157 166 171 173 172 169 164 169 184 226 232 229 223 219 225 246 238 229 238 247 197 172 1 64 21 11
318 322 242 310 349 306 264 164 177 144 157 151 129 144 244 227 233 199 155 149 143 141 158 161 163 159 162 171 179 192 203 188 193 195 186 181 174 177 173 169 164 163 165 172 157 183 184 179 176 167 170 170 175 161 163 174 189 182 174 179 188 186 197 188 186 178 168 166 169 176 165 156 158 181 173 179 166 151 164 181 190 220 219 210 208 204 221 210 210 175 179 83 125 94 162 113 17
340 301 62 221 353 269 252 173 173 140 181 170 146 186 258 242 240 208 163 158 154 161 167 166 166 166 169 174 179 189 200 201 200 193 188 182 177 174 175 168 168 164 156 166 182 186 177 181 178 165 179 182 169 159 170 196 195 181 139 198 225 200 194 189 186 181 168 171 162 166 163 166 174 179 181 163 164 163 168 181 183 187 213 164 159 172 168 157 139 158 117 100 80 112 165 248 182
288 359 303 320 196 273 284 181 172 166 214 191 107 154 232 229 223 190 171 170 163 163 173 175 172 171 176 175 179 185 197 206 214 202 191 186 178 175 173 177 169 167 170 173 175 171 186 182 186 169 181 189 178 164 183 201 191 171 182 192 245 249 210 198 195 197 175 162 164 166 169 169 178 181 177 166 163 176 178 186 184 166 180 140 144 166 160 148 153 138 127 129 115 228 202 246 192
327 175 273 267 210 254 316 247 193 176 162 209 180 202 323 301 211 183 186 173 175 168 179 183 178 176 178 180 182 185 184 206 214 216 203 189 187 176 175 175 175 174 169 164 167 172 189 188 186 175 187 189 180 170 189 196 175 185 184 177 293 291 273 268 248 213 170 144 154 168 175 176 180 180 176 181 169 178 181 187 178 171 167 156 157 183 151 151 142 144 133 133 140 172 201 209 230
296 327 238 252 227 254 248 294 282 155 151 197 235 171 212 229 156 181 191 183 177 183 186 185 183 179 184 184 184 184 190 192 203 210 211 195 189 179 171 171 176 173 172 169 172 172 186 186 188 182 181 173 174 179 184 183 158 146 151 146 212 280 289 303 289 162 173 128 153 175 187 191 185 181 180 183 183 184 172 172 174 173 162 160 166 178 158 136 117 133 130 115 138 146 184 191 206
273 321 308 295 285 237 231 178 240 116 171 181 206 224 250 276 176 183 191 183 183 199 190 183 185 180 182 186 190 190 190 197 206 201 200 196 184 175 166 163 170 176 175 175 175 178 168 177 178 185 171 166 167 171 177 154 141 142 103 155 196 221 252 260 108 200 178 136 171 178 197 203 189 178 179 184 184 180 159 163 175 180 162 167 171 169 138 125 117 112 152 138 123 181 177 195 181
267 270 262 256 292 292 218 259 202 171 183 197 194 215 229 198 199 191 187 185 191 209 199 185 182 179 180 186 194 192 194 204 205 192 192 187 184 173 165 156 165 173 179 176 181 173 170 173 173 169 165 157 156 178 160 138 136 162 177 199 228 234 237 230 206 203 167 176 183 192 216 219 197 181 185 183 195 180 164 175 172 159 157 149 158 154 164 156 160 162 181 150 149 158 105 166 109
248 267 270 260 269 293 312 271 231 190 164 211 194 218 214 200 192 192 187 182 204 208 208 196 183 179 185 189 193 195 194 202 197 189 186 185 180 173 160 151 158 169 180 185 179 181 180 181 168 183 175 165 166 168 155 143 172 187 199 202 207 209 221 221 213 194 189 179 190 199 228 240 202 200 191 191 192 185 181 175 161 156 156 160 162 189 195 186 167 161 155 145 151 156 246 270 224
254 267 268 292 212 262 203 236 236 280 165 272 240 201 206 206 201 190 175 187 205 205 203 201 195 184 187 189 192 194 201 189 176 186 188 179 172 169 163 157 156 167 188 191 192 187 185 182 182 182 167 177 181 173 172 180 193 190 183 190 179 193 217 220 222 198 201 198 193 193 209 224 198 196 216 217 199 174 169 180 183 173 163 173 183 203 214 199 165 145 138 119 84 169 221 208 215
269 231 242 307 294 250 260 241 243 248 130 241 247 235 233 216 200 181 185 196 204 203 195 199 191 187 187 192 191 192 186 183 181 190 185 184 174 171 175 172 171 178 182 192 198 192 187 187 186 179 177 179 194 180 176 200 195 194 190 182 178 192 219 231 242 222 210 219 205 193 195 196 185 188 217 234 227 194 191 189 202 188 170 168 171 193 219 209 186 161 157 162 172 26 247 251 197
243 272 295 270 242 22 306 304 33 238 155 233 232 216 284 276 217 192 203 197 202 205 203 199 192 186 187 190 188 186 185 180 184 185 189 186 178 176 181 182 179 177 181 190 195 199 199 198 188 178 181 186 190 190 200 202 194 193 200 195 190 176 194 197 185 170 188 196 224 211 198 189 181 180 191 219 240 202 198 213 212 208 184 169 173 191 202 210 189 161 144 154 123 168 296 296 138
248 198 214 264 267 221 193 263 354 5 295 195 85 11 320 200 186 240 230 212 220 216 211 202 205 200 193 190 186 182 182 184 183 186 187 183 181 185 187 186 177 183 187 189 193 197 200 202 195 183 182 187 186 191 197 191 192 191 187 124 128 104 34 129 166 201 199 209 218 209 215 195 192 186 181 193 207 208 199 204 217 222 192 182 175 196 201 202 187 121 134 147 168 150 220 320 325
311 244 202 228 240 267 265 281 300 30 333 314 97 6 288 262 203 214 199 187 215 208 202 208 200 192 192 190 190 188 188 185 181 185 187 186 185 185 188 183 185 192 195 195 192 196 199 204 199 193 182 179 180 187 188 182 194 177 160 172 181 199 211 203 212 208 201 213 220 181 205 192 177 188 205 196 203 202 205 200 200 201 207 194 191 194 202 178 170 159 161 161 187 198 150 170 258
155 265 202 215 247 287 289 289 61 282 243 280 29 240 269 316 282 222 216 200 205 189 199 206 197 188 191 196 188 185 182 185 194 191 184 183 187 182 188 190 191 193 201 192 190 195 200 203 200 191 186 178 178 180 182 184 192 188 184 186 193 201 211 226 209 205 211 224 214 193 192 180 178 180 202 206 204 204 202 202 202 198 194 194 193 176 201 206 191 187 167 172 190 162 137 203 228
228 240 156 129 40 232 227 132 133 223 235 288 36 115 219 302 292 229 208 199 206 203 203 202 197 189 195 197 190 182 180 180 182 190 189 189 184 184 189 196 193 198 190 184 190 191 194 200 195 197 194 185 177 175 181 184 187 188 188 190 194 207 212 223 203 210 206 206 205 213 190 195 186 183 187 200 205 207 201 203 199 200 200 197 194 200 205 191 171 168 175 181 157 170 185 200 224
213 248 186 197 205 216 205 216 246 197 62 298 320 353 348 258 264 337 166 208 217 208 210 205 196 192 197 198 191 183 177 178 181 185 188 187 189 191 192 195 202 192 179 187 191 190 190 190 192 197 204 201 193 180 180 189 188 185 186 186 200 214 219 230 218 208 205 205 206 205 200 201 196 191 187 192 200 204 213 208 197 197 203 206 206 209 206 189 188 174 165 164 182 189 186 200 184
264 242 160 191 204 198 183 175 163 327 71 264 273 249 257 275 274 311 307 200 210 210 209 204 195 192 196 195 182 174 174 179 190 190 186 188 190 192 193 197 193 192 189 186 190 188 187 182 188 191 205 207 205 200 193 194 194 185 184 189 198 209 214 236 215 222 217 201 211 204 203 199 203 195 193 196 198 203 208 208 202 198 198 199 207 211 207 203 202 193 184 178 181 194 195 198 207
195 68 281 341 27 4 0 86 105 57 276 254 235 221 162 275 269 244 229 202 209 209 187 192 201 202 198 187 176 173 176 185 193 192 191 192 191 193 191 190 196 191 185 181 184 189 187 189 191 194 202 202 204 204 199 201 197 191 193 190 197 203 201 204 215 226 212 210 217 212 192 198 197 206 189 199 199 198 208 210 201 200 193 197 202 200 205 206 207 200 189 183 188 195 199 203 213
80 38 160 36 337 0 28 333 42 175 270 263 248 212 154 214 293 280 237 259 229 180 182 174 179 187 187 180 181 179 179 188 192 183 186 190 188 201 197 201 188 187 180 185 188 184 187 191 191 199 202 202 203 201 200 202 198 199 197 191 197 203 197 198 205 217 207 209 211 217 192 167 188 196 193 195 205 209 212 210 201 194 196 195 207 206 204 205 206 199 191 192 200 202 197 199 209
77 75 42 247 274 21 300 9 286 218 212 250 291 128 25 237 230 239 281 277 222 188 163 169 172 179 180 181 180 181 184 187 180 183 181 183 189 189 195 206 195 180 190 190 187 185 187 189 193 197 206 203 203 199 200 201 199 201 199 197 199 198 199 203 207 211 207 210 208 211 194 190 166 177 203 202 206 203 212 215 199 196 201 204 208 204 207 198 198 197 197 202 201 194 197 197 199
190 210 152 114 239 246 236 270 227 305 290 264 275 212 242 244 293 241 214 220 196 172 163 161 170 175 178 180 180 180 181 178 181 181 185 188 191 192 194 197 199 195 192 189 188 186 187 191 194 199 207 201 201 200 201 202 205 205 203 202 200 195 200 201 206 208 205 205 202 202 203 197 180 188 187 205 205 196 199 209 211 209 208 207 205 208 206 200 194 198 199 204 207 206 190 198 209
219 153 155 178 149 160 228 213 229 228 223 274 303 126 231 102 250 248 269 164 148 139 128 124 144 165 170 172 171 172 174 183 181 182 186 192 195 192 191 191 197 200 195 188 189 192 188 193 193 199 203 201 198 199 199 204 206 208 211 209 205 200 202 203 208 209 207 202 200 200 201 190 191 200 188 197 187 195 208 202 208 212 212 208 204 208 213 206 198 194 198 208 213 201 200 200 213
225 169 90 96 215 141 212 202 183 233 281 316 301 203 191 159 262 170 290 323 92 117 120 113 122 135 136 144 165 176 183 183 183 186 192 197 196 189 182 190 196 197 194 192 194 192 193 196 193 196 197 193 194 195 200 200 202 202 204 206 206 202 202 203 212 217 218 206 199 191 193 178 200 208 209 186 194 191 201 210 213 217 214 210 207 207 203 197 190 192 209 209 215 196 200 206 216
252 140 184 211 178 153 198 336 261 111 34 251 201 307 307 305 13 312 270 216 177 164 155 142 147 152 152 162 171 176 182 183 181 191 194 190 176 190 195 192 195 193 188 194 197 196 196 193 191 197 200 193 192 195 197 198 199 198 202 201 199 198 197 197 204 211 213 208 197 189 170 185 206 167 166 200 206 191 186 191 200 215 220 219 213 197 194 189 177 180 195 209 217 202 198 211 211
107 174 227 272 108 118 144 211 309 192 212 257 132 206 258 122 234 281 272 229 208 212 192 175 160 152 152 168 174 178 181 185 187 185 183 181 183 189 196 199 196 193 191 190 198 198 197 194 192 195 196 196 199 197 195 195 197 201 201 201 198 195 195 196 195 203 209 206 198 187 172 183 213 178 188 227 213 211 205 192 163 158 217 219 206 199 206 203 187 204 209 210 210 194 201 209 208
206 215 173 161 253 266 304 129 235 268 250 254 270 223 230 187 227 200 217 208 220 222 214 178 173 177 167 173 167 176 183 180 177 171 170 178 184 191 192 198 201 200 189 189 192 190 191 196 198 195 198 199 194 193 196 198 196 198 200 201 199 199 195 191 192 195 198 204 204 192 194 194 205 176 200 232 231 233 214 196 162 193 196 190 192 199 201 202 187 203 212 214 213 197 201 210 213
234 45 159 178 113 168 163 196 168 156 250 107 292 192 238 211 198 186 193 203 197 194 190 199 178 177 175 179 161 161 171 180 176 172 176 180 182 188 192 188 189 194 180 182 186 185 189 190 191 201 204 189 178 186 192 195 197 194 196 194 202 199 196 193 189 189 196 201 204 196 197 200 181 157 232 250 248 230 222 195 191 213 208 190 193 195 189 195 195 205 206 209 202 182 194 205 213
232 241 268 231 195 219 156 131 152 185 189 198 205 266 278 253 200 179 194 196 201 181 184 191 189 191 191 179 162 164 165 169 173 172 174 178 182 185 186 188 192 184 170 174 182 189 188 181 192 191 189 194 197 197 193 201 191 198 190 192 196 196 199 197 193 192 195 201 200 201 201 187 102 169 230 242 252 246 232 204 193 208 210 194 199 202 199 198 203 215 218 214 201 190 194 210 201
181 193 218 191 179 144 186 259 335 130 152 225 156 247 259 266 185 184 193 205 189 196 178 186 193 199 199 175 168 162 166 174 169 176 173 176 174 178 183 177 164 161 174 186 198 189 183 192 198 193 196 200 199 202 197 196 196 196 196 196 193 191 192 194 198 199 203 201 200 199 209 148 158 170 191 208 220 232 230 208 191 198 201 198 198 200 197 196 204 211 220 218 210 201 207 213 193